contact:dominique.lefevre@mio.osupytheas.fr, maurice.libes@osupytheas.fr, didier.mallarino@osupytheas.fr
Project:EMSO http://www.emso-fr.org/EMSO-France
Depth: 2436.0 m
Title:EMSO Ligure Ouest : Data MII capteur CSTAR
DateTime,Latitude,Longitude,Instrument_Serial,Reference_Counts,Signal_Counts,Corrected_Signal_raw_counts,Calculated_Beam_c_inverse_meters,Internal_thermistor_counts
DateTime,Latitude,Longitude,Instrument_Serial,Reference_Counts,Signal_Counts,Corrected_Signal_raw_counts,Calculated_Beam_c_inverse_meters,Internal_thermistor_counts
2023-12-31T00:02:41,42.805,6.029,CST-1368DR,4072,4287,11153,01.346,553
2023-12-31T00:05:42,42.805,6.029,CST-1368DR,4072,4285,11148,01.348,553
2023-12-31T00:08:44,42.805,6.029,CST-1368DR,4072,4287,11153,01.346,553
2023-12-31T00:11:45,42.805,6.029,CST-1368DR,4072,4288,11156,01.345,553
2023-12-31T00:14:47,42.805,6.029,CST-1368DR,4072,4284,11145,01.349,553
2023-12-31T00:17:48,42.805,6.029,CST-1368DR,4072,4287,11152,01.347,553
2023-12-31T00:20:50,42.805,6.029,CST-1368DR,4072,4287,11154,01.346,553
2023-12-31T00:23:52,42.805,6.029,CST-1368DR,4072,4288,11156,01.345,553
2023-12-31T00:26:53,42.805,6.029,CST-1368DR,4072,4284,11144,01.350,553
2023-12-31T00:29:55,42.805,6.029,CST-1368DR,4072,4287,11152,01.347,553
2023-12-31T00:32:56,42.805,6.029,CST-1368DR,4072,4266,11097,01.366,553
2023-12-31T00:35:58,42.805,6.029,CST-1368DR,4072,4264,11092,01.368,553
2023-12-31T00:39:00,42.805,6.029,CST-1368DR,4072,4267,11102,01.365,553
2023-12-31T00:42:01,42.805,6.029,CST-1368DR,4072,4265,11095,01.367,553
2023-12-31T00:45:03,42.805,6.029,CST-1368DR,4072,4266,11097,01.366,553
2023-12-31T00:48:04,42.805,6.029,CST-1368DR,4072,4267,11100,01.365,553
2023-12-31T00:51:06,42.805,6.029,CST-1368DR,4072,4270,11108,01.363,553
2023-12-31T00:54:07,42.805,6.029,CST-1368DR,4072,4266,11098,01.366,553
2023-12-31T00:57:09,42.805,6.029,CST-1368DR,4072,4270,11109,01.362,553
2023-12-31T01:00:11,42.805,6.029,CST-1368DR,4072,4274,11118,01.359,553
2023-12-31T01:03:12,42.805,6.029,CST-1368DR,4072,4274,11118,01.359,553
2023-12-31T01:06:14,42.805,6.029,CST-1368DR,4072,4273,11117,01.359,553
2023-12-31T01:09:15,42.805,6.029,CST-1368DR,4072,4273,11117,01.359,553
2023-12-31T01:12:17,42.805,6.029,CST-1368DR,4072,4271,11111,01.361,553
2023-12-31T01:15:18,42.805,6.029,CST-1368DR,4072,4271,11111,01.361,553
2023-12-31T01:18:20,42.805,6.029,CST-1368DR,4072,4272,11113,01.361,553
2023-12-31T01:21:22,42.805,6.029,CST-1368DR,4072,4270,11109,01.362,553
2023-12-31T01:24:23,42.805,6.029,CST-1368DR,4072,4271,11111,01.361,553
2023-12-31T01:27:25,42.805,6.029,CST-1368DR,4072,4272,11113,01.361,553
2023-12-31T01:30:26,42.805,6.029,CST-1368DR,4072,4271,11112,01.361,553
2023-12-31T01:33:28,42.805,6.029,CST-1368DR,4072,4271,11111,01.361,553
2023-12-31T01:36:29,42.805,6.029,CST-1368DR,4072,4272,11115,01.360,553
2023-12-31T01:39:31,42.805,6.029,CST-1368DR,4072,4271,11111,01.361,553
2023-12-31T01:42:33,42.805,6.029,CST-1368DR,4072,4277,11126,01.356,553
2023-12-31T01:45:34,42.805,6.029,CST-1368DR,4072,4272,11113,01.361,553
2023-12-31T01:48:36,42.805,6.029,CST-1368DR,4072,4272,11113,01.361,553
2023-12-31T01:51:37,42.805,6.029,CST-1368DR,4072,4272,11113,01.361,553
2023-12-31T01:54:39,42.805,6.029,CST-1368DR,4072,4264,11093,01.368,553
2023-12-31T01:57:41,42.805,6.029,CST-1368DR,4072,4271,11110,01.362,553
2023-12-31T02:00:42,42.805,6.029,CST-1368DR,4072,4271,11111,01.361,553
2023-12-31T02:03:44,42.805,6.029,CST-1368DR,4072,4273,11115,01.360,553
2023-12-31T02:06:45,42.805,6.029,CST-1368DR,4072,4270,11109,01.362,553
2023-12-31T02:09:47,42.805,6.029,CST-1368DR,4072,4271,11110,01.362,553
2023-12-31T02:12:48,42.805,6.029,CST-1368DR,4072,4270,11108,01.363,553
2023-12-31T02:15:50,42.805,6.029,CST-1368DR,4072,4271,11111,01.361,553
2023-12-31T02:18:52,42.805,6.029,CST-1368DR,4072,4271,11111,01.361,553
2023-12-31T02:21:53,42.805,6.029,CST-1368DR,4072,4272,11115,01.360,553
2023-12-31T02:24:55,42.805,6.029,CST-1368DR,4072,4272,11113,01.361,553
2023-12-31T02:27:56,42.805,6.029,CST-1368DR,4072,4271,11111,01.361,553
2023-12-31T02:30:58,42.805,6.029,CST-1368DR,4072,4273,11116,01.360,553
2023-12-31T02:33:59,42.805,6.029,CST-1368DR,4072,4270,11109,01.362,553
2023-12-31T02:37:01,42.805,6.029,CST-1368DR,4072,4273,11117,01.359,553
2023-12-31T02:40:03,42.805,6.029,CST-1368DR,4072,4271,11111,01.361,553
2023-12-31T02:43:04,42.805,6.029,CST-1368DR,4072,4274,11119,01.359,553
2023-12-31T02:46:06,42.805,6.029,CST-1368DR,4072,4272,11115,01.360,553
2023-12-31T02:49:07,42.805,6.029,CST-1368DR,4072,4272,11113,01.361,553
2023-12-31T02:52:09,42.805,6.029,CST-1368DR,4072,4271,11110,01.362,553
2023-12-31T02:55:11,42.805,6.029,CST-1368DR,4072,4274,11120,01.358,553
2023-12-31T02:58:12,42.805,6.029,CST-1368DR,4072,4272,11113,01.361,553
2023-12-31T03:01:14,42.805,6.029,CST-1368DR,4072,4273,11117,01.359,553
2023-12-31T03:04:15,42.805,6.029,CST-1368DR,4072,4273,11117,01.359,553
2023-12-31T03:07:17,42.805,6.029,CST-1368DR,4072,4274,11118,01.359,553
2023-12-31T03:10:18,42.805,6.029,CST-1368DR,4072,4272,11113,01.361,553
2023-12-31T03:13:20,42.805,6.029,CST-1368DR,4072,4271,11110,01.362,553
2023-12-31T03:16:22,42.805,6.029,CST-1368DR,4072,4273,11115,01.360,553
2023-12-31T03:19:23,42.805,6.029,CST-1368DR,4072,4273,11117,01.359,553
2023-12-31T03:22:25,42.805,6.029,CST-1368DR,4072,4271,11112,01.361,553
2023-12-31T03:25:26,42.805,6.029,CST-1368DR,4072,4272,11115,01.360,553
2023-12-31T03:28:28,42.805,6.029,CST-1368DR,4072,4272,11115,01.360,553
2023-12-31T03:31:29,42.805,6.029,CST-1368DR,4072,4273,11117,01.359,553
2023-12-31T03:34:31,42.805,6.029,CST-1368DR,4072,4273,11117,01.359,553
2023-12-31T03:37:33,42.805,6.029,CST-1368DR,4072,4273,11117,01.359,553
2023-12-31T03:40:34,42.805,6.029,CST-1368DR,4072,4271,11112,01.361,553
2023-12-31T03:43:36,42.805,6.029,CST-1368DR,4072,4273,11115,01.360,553
2023-12-31T03:46:37,42.805,6.029,CST-1368DR,4072,4274,11118,01.359,553
2023-12-31T03:49:39,42.805,6.029,CST-1368DR,4072,4273,11117,01.359,553
2023-12-31T03:52:40,42.805,6.029,CST-1368DR,4072,4272,11113,01.361,553
2023-12-31T03:55:42,42.805,6.029,CST-1368DR,4072,4273,11116,01.360,553
2023-12-31T03:58:44,42.805,6.029,CST-1368DR,4072,4276,11124,01.357,553
2023-12-31T04:01:45,42.805,6.029,CST-1368DR,4072,4272,11115,01.360,553
2023-12-31T04:04:47,42.805,6.029,CST-1368DR,4072,4273,11115,01.360,553
2023-12-31T04:07:48,42.805,6.029,CST-1368DR,4072,4273,11117,01.359,553
2023-12-31T04:10:50,42.805,6.029,CST-1368DR,4072,4275,11121,01.358,553
2023-12-31T04:13:52,42.805,6.029,CST-1368DR,4072,4273,11117,01.359,553
2023-12-31T04:16:53,42.805,6.029,CST-1368DR,4072,4273,11116,01.360,553
2023-12-31T04:19:55,42.805,6.029,CST-1368DR,4072,4272,11115,01.360,553
2023-12-31T04:22:56,42.805,6.029,CST-1368DR,4072,4275,11121,01.358,553
2023-12-31T04:25:58,42.805,6.029,CST-1368DR,4072,4275,11121,01.358,553
2023-12-31T04:28:59,42.805,6.029,CST-1368DR,4072,4274,11119,01.359,553
2023-12-31T04:32:01,42.805,6.029,CST-1368DR,4072,4275,11122,01.357,553
2023-12-31T04:35:03,42.805,6.029,CST-1368DR,4072,4272,11115,01.360,553
2023-12-31T04:38:04,42.805,6.029,CST-1368DR,4072,4274,11120,01.358,553
2023-12-31T04:41:06,42.805,6.029,CST-1368DR,4072,4277,11126,01.356,553
2023-12-31T04:44:07,42.805,6.029,CST-1368DR,4072,4273,11117,01.359,553
2023-12-31T04:47:09,42.805,6.029,CST-1368DR,4072,4273,11117,01.359,553
2023-12-31T04:50:10,42.805,6.029,CST-1368DR,4072,4274,11119,01.359,553
2023-12-31T04:53:12,42.805,6.029,CST-1368DR,4072,4273,11117,01.359,553
2023-12-31T04:56:14,42.805,6.029,CST-1368DR,4072,4275,11121,01.358,553
2023-12-31T04:59:15,42.805,6.029,CST-1368DR,4072,4274,11119,01.359,553
2023-12-31T05:02:17,42.805,6.029,CST-1368DR,4072,4275,11122,01.357,553
2023-12-31T05:05:18,42.805,6.029,CST-1368DR,4072,4274,11119,01.359,553
2023-12-31T05:08:20,42.805,6.029,CST-1368DR,4072,4274,11118,01.359,553
2023-12-31T05:11:22,42.805,6.029,CST-1368DR,4072,4266,11098,01.366,553
2023-12-31T05:14:23,42.805,6.029,CST-1368DR,4072,4275,11122,01.357,553
2023-12-31T05:17:25,42.805,6.029,CST-1368DR,4072,4275,11122,01.357,553
2023-12-31T05:20:26,42.805,6.029,CST-1368DR,4072,4273,11117,01.359,553
2023-12-31T05:23:28,42.805,6.029,CST-1368DR,4072,4276,11124,01.357,553
2023-12-31T05:26:29,42.805,6.029,CST-1368DR,4072,4274,11119,01.359,553
2023-12-31T05:29:31,42.805,6.029,CST-1368DR,4072,4275,11122,01.357,553
2023-12-31T05:32:34,42.805,6.029,CST-1368DR,4072,4275,11121,01.358,553
2023-12-31T05:35:35,42.805,6.029,CST-1368DR,4072,4274,11120,01.358,553
2023-12-31T05:38:37,42.805,6.029,CST-1368DR,4072,4274,11118,01.359,553
2023-12-31T05:41:39,42.805,6.029,CST-1368DR,4072,4274,11120,01.358,553
2023-12-31T05:44:40,42.805,6.029,CST-1368DR,4072,4275,11122,01.357,553
2023-12-31T05:47:42,42.805,6.029,CST-1368DR,4072,4274,11119,01.359,553
2023-12-31T05:50:43,42.805,6.029,CST-1368DR,4072,4275,11121,01.358,553
2023-12-31T05:53:45,42.805,6.029,CST-1368DR,4072,4274,11118,01.359,553
2023-12-31T05:56:46,42.805,6.029,CST-1368DR,4072,4274,11119,01.359,553
2023-12-31T05:59:48,42.805,6.029,CST-1368DR,4072,4274,11119,01.359,553
2023-12-31T06:02:50,42.805,6.029,CST-1368DR,4072,4275,11121,01.358,553
2023-12-31T06:05:51,42.805,6.029,CST-1368DR,4072,4277,11126,01.356,553
2023-12-31T06:08:53,42.805,6.029,CST-1368DR,4072,4275,11121,01.358,553
2023-12-31T06:11:54,42.805,6.029,CST-1368DR,4072,4274,11118,01.359,553
2023-12-31T06:14:56,42.805,6.029,CST-1368DR,4072,4275,11121,01.358,553
2023-12-31T06:17:57,42.805,6.029,CST-1368DR,4072,4276,11125,01.356,553
2023-12-31T06:20:59,42.805,6.029,CST-1368DR,4072,4274,11120,01.358,553
2023-12-31T06:24:01,42.805,6.029,CST-1368DR,4072,4274,11118,01.359,553
2023-12-31T06:27:02,42.805,6.029,CST-1368DR,4072,4275,11121,01.358,553
2023-12-31T06:30:04,42.805,6.029,CST-1368DR,4072,4271,11112,01.361,553
2023-12-31T06:33:05,42.805,6.029,CST-1368DR,4072,4274,11119,01.359,553
2023-12-31T06:36:07,42.805,6.029,CST-1368DR,4072,4274,11119,01.359,553
2023-12-31T06:39:09,42.805,6.029,CST-1368DR,4072,4274,11119,01.359,553
2023-12-31T06:42:10,42.805,6.029,CST-1368DR,4072,4273,11115,01.360,553
2023-12-31T06:45:12,42.805,6.029,CST-1368DR,4072,4276,11124,01.357,553
2023-12-31T06:48:13,42.805,6.029,CST-1368DR,4072,4273,11117,01.359,553
2023-12-31T06:51:15,42.805,6.029,CST-1368DR,4072,4273,11117,01.359,553
2023-12-31T06:54:16,42.805,6.029,CST-1368DR,4072,4273,11117,01.359,553
2023-12-31T06:57:18,42.805,6.029,CST-1368DR,4072,4273,11116,01.360,553
2023-12-31T07:00:20,42.805,6.029,CST-1368DR,4072,4274,11118,01.359,553
2023-12-31T07:03:21,42.805,6.029,CST-1368DR,4072,4274,11119,01.359,553
2023-12-31T07:06:23,42.805,6.029,CST-1368DR,4072,4271,11111,01.361,553
2023-12-31T07:09:24,42.805,6.029,CST-1368DR,4072,4275,11121,01.358,553
2023-12-31T07:12:26,42.805,6.029,CST-1368DR,4072,4274,11119,01.359,553
2023-12-31T07:15:27,42.805,6.029,CST-1368DR,4072,4273,11117,01.359,553
2023-12-31T07:18:29,42.805,6.029,CST-1368DR,4072,4274,11120,01.358,553
2023-12-31T07:21:31,42.805,6.029,CST-1368DR,4072,4275,11120,01.358,553
2023-12-31T07:24:32,42.805,6.029,CST-1368DR,4072,4274,11119,01.359,553
2023-12-31T07:27:34,42.805,6.029,CST-1368DR,4072,4274,11119,01.359,553
2023-12-31T07:30:37,42.805,6.029,CST-1368DR,4072,4276,11124,01.357,553
2023-12-31T07:33:38,42.805,6.029,CST-1368DR,4072,4275,11120,01.358,553
2023-12-31T07:36:40,42.805,6.029,CST-1368DR,4072,4275,11122,01.357,553
2023-12-31T07:39:42,42.805,6.029,CST-1368DR,4072,4274,11119,01.359,553
2023-12-31T07:42:43,42.805,6.029,CST-1368DR,4072,4274,11119,01.359,553
2023-12-31T07:45:45,42.805,6.029,CST-1368DR,4072,4276,11124,01.357,553
2023-12-31T07:48:46,42.805,6.029,CST-1368DR,4072,4274,11119,01.359,553
2023-12-31T07:51:48,42.805,6.029,CST-1368DR,4072,4273,11117,01.359,553
2023-12-31T07:54:50,42.805,6.029,CST-1368DR,4072,4274,11120,01.358,553
2023-12-31T07:57:51,42.805,6.029,CST-1368DR,4072,4273,11117,01.359,553
2023-12-31T08:00:53,42.805,6.029,CST-1368DR,4072,4272,11115,01.360,553
2023-12-31T08:03:54,42.805,6.029,CST-1368DR,4072,4274,11118,01.359,553
2023-12-31T08:06:56,42.805,6.029,CST-1368DR,4072,4273,11117,01.359,553
2023-12-31T08:09:57,42.805,6.029,CST-1368DR,4072,4274,11119,01.359,553
2023-12-31T08:12:59,42.805,6.029,CST-1368DR,4072,4270,11109,01.362,553
2023-12-31T08:16:01,42.805,6.029,CST-1368DR,4072,4274,11119,01.359,553
2023-12-31T08:19:02,42.805,6.029,CST-1368DR,4072,4274,11119,01.359,553
2023-12-31T08:22:04,42.805,6.029,CST-1368DR,4072,4274,11120,01.358,553
2023-12-31T08:25:05,42.805,6.029,CST-1368DR,4072,4275,11121,01.358,553
2023-12-31T08:28:07,42.805,6.029,CST-1368DR,4072,4275,11122,01.357,553
2023-12-31T08:31:08,42.805,6.029,CST-1368DR,4072,4275,11121,01.358,553
2023-12-31T08:34:10,42.805,6.029,CST-1368DR,4072,4273,11117,01.359,553
2023-12-31T08:37:12,42.805,6.029,CST-1368DR,4072,4276,11124,01.357,553
2023-12-31T08:40:13,42.805,6.029,CST-1368DR,4072,4276,11125,01.356,553
2023-12-31T08:43:15,42.805,6.029,CST-1368DR,4072,4274,11120,01.358,553
2023-12-31T08:46:16,42.805,6.029,CST-1368DR,4072,4272,11115,01.360,553
2023-12-31T08:49:18,42.805,6.029,CST-1368DR,4072,4275,11121,01.358,553
2023-12-31T08:52:20,42.805,6.029,CST-1368DR,4072,4276,11124,01.357,553
2023-12-31T08:55:21,42.805,6.029,CST-1368DR,4072,4278,11128,01.355,553
2023-12-31T08:58:23,42.805,6.029,CST-1368DR,4072,4275,11121,01.358,553
2023-12-31T09:01:24,42.805,6.029,CST-1368DR,4072,4277,11127,01.356,553
2023-12-31T09:04:26,42.805,6.029,CST-1368DR,4072,4277,11128,01.355,553
2023-12-31T09:07:27,42.805,6.029,CST-1368DR,4072,4278,11128,01.355,553
2023-12-31T09:10:29,42.805,6.029,CST-1368DR,4072,4276,11124,01.357,553
2023-12-31T09:13:31,42.805,6.029,CST-1368DR,4072,4280,11135,01.353,553
2023-12-31T09:16:32,42.805,6.029,CST-1368DR,4072,4277,11126,01.356,553
2023-12-31T09:19:34,42.805,6.029,CST-1368DR,4072,4286,11150,01.347,553
2023-12-31T09:22:35,42.805,6.029,CST-1368DR,4072,4277,11126,01.356,553
2023-12-31T09:25:37,42.805,6.029,CST-1368DR,4072,4280,11133,01.354,553
2023-12-31T09:28:38,42.805,6.029,CST-1368DR,4072,4280,11133,01.354,553
2023-12-31T09:31:40,42.805,6.029,CST-1368DR,4072,4279,11133,01.354,553
2023-12-31T09:34:42,42.805,6.029,CST-1368DR,4072,4277,11126,01.356,553
2023-12-31T09:37:43,42.805,6.029,CST-1368DR,4072,4280,11133,01.354,553
2023-12-31T09:40:45,42.805,6.029,CST-1368DR,4072,4278,11130,01.355,553
2023-12-31T09:43:47,42.805,6.029,CST-1368DR,4072,4279,11132,01.354,553
2023-12-31T09:46:48,42.805,6.029,CST-1368DR,4072,4279,11132,01.354,553
2023-12-31T09:49:50,42.805,6.029,CST-1368DR,4072,4278,11130,01.355,553
2023-12-31T09:52:51,42.805,6.029,CST-1368DR,4072,4275,11122,01.357,553
2023-12-31T09:55:53,42.805,6.029,CST-1368DR,4072,4275,11121,01.358,553
2023-12-31T09:58:54,42.805,6.029,CST-1368DR,4072,4275,11122,01.357,553
2023-12-31T10:01:56,42.805,6.029,CST-1368DR,4072,4277,11126,01.356,553
2023-12-31T10:04:58,42.805,6.029,CST-1368DR,4072,4277,11126,01.356,553
2023-12-31T10:07:59,42.805,6.029,CST-1368DR,4072,4276,11125,01.356,553
2023-12-31T10:11:01,42.805,6.029,CST-1368DR,4072,4279,11132,01.354,553
2023-12-31T10:14:02,42.805,6.029,CST-1368DR,4072,4279,11132,01.354,553
2023-12-31T10:17:04,42.805,6.029,CST-1368DR,4072,4280,11133,01.354,553
2023-12-31T10:20:05,42.805,6.029,CST-1368DR,4072,4279,11133,01.354,553
2023-12-31T10:23:07,42.805,6.029,CST-1368DR,4072,4278,11128,01.355,553
2023-12-31T10:26:09,42.805,6.029,CST-1368DR,4072,4277,11128,01.355,553
2023-12-31T10:29:10,42.805,6.029,CST-1368DR,4072,4278,11128,01.355,553
2023-12-31T10:32:12,42.805,6.029,CST-1368DR,4072,4275,11120,01.358,553
2023-12-31T10:35:13,42.805,6.029,CST-1368DR,4072,4277,11128,01.355,553
2023-12-31T10:38:15,42.805,6.029,CST-1368DR,4072,4276,11124,01.357,553
2023-12-31T10:41:17,42.805,6.029,CST-1368DR,4072,4276,11125,01.356,553
2023-12-31T10:44:18,42.805,6.029,CST-1368DR,4072,4280,11133,01.354,553
2023-12-31T10:47:20,42.805,6.029,CST-1368DR,4072,4277,11127,01.356,553
2023-12-31T10:50:21,42.805,6.029,CST-1368DR,4072,4274,11120,01.358,553
2023-12-31T10:53:23,42.805,6.029,CST-1368DR,4072,4276,11125,01.356,553
2023-12-31T10:56:24,42.805,6.029,CST-1368DR,4072,4277,11126,01.356,553
2023-12-31T10:59:26,42.805,6.029,CST-1368DR,4072,4276,11124,01.357,553
2023-12-31T11:02:28,42.805,6.029,CST-1368DR,4072,4276,11124,01.357,553
2023-12-31T11:05:29,42.805,6.029,CST-1368DR,4072,4277,11128,01.355,553
2023-12-31T11:08:31,42.805,6.029,CST-1368DR,4072,4276,11124,01.357,553
2023-12-31T11:11:32,42.805,6.029,CST-1368DR,4072,4278,11129,01.355,553
2023-12-31T11:14:34,42.805,6.029,CST-1368DR,4072,4278,11128,01.355,553
2023-12-31T11:17:35,42.805,6.029,CST-1368DR,4072,4279,11131,01.354,553
2023-12-31T11:20:37,42.805,6.029,CST-1368DR,4072,4277,11127,01.356,553
2023-12-31T11:23:39,42.805,6.029,CST-1368DR,4072,4277,11126,01.356,553
2023-12-31T11:26:40,42.805,6.029,CST-1368DR,4072,4277,11127,01.356,553
2023-12-31T11:29:42,42.805,6.029,CST-1368DR,4072,4276,11124,01.357,553
2023-12-31T11:32:44,42.805,6.029,CST-1368DR,4072,4276,11125,01.356,553
2023-12-31T11:35:45,42.805,6.029,CST-1368DR,4072,4275,11122,01.357,553
2023-12-31T11:38:47,42.805,6.029,CST-1368DR,4072,4275,11122,01.357,553
2023-12-31T11:41:48,42.805,6.029,CST-1368DR,4072,4274,11120,01.358,553
2023-12-31T11:44:50,42.805,6.029,CST-1368DR,4072,4275,11120,01.358,553
2023-12-31T11:47:51,42.805,6.029,CST-1368DR,4072,4274,11118,01.359,553
2023-12-31T11:50:53,42.805,6.029,CST-1368DR,4072,4275,11121,01.358,553
2023-12-31T11:53:55,42.805,6.029,CST-1368DR,4072,4274,11119,01.359,553
2023-12-31T11:56:56,42.805,6.029,CST-1368DR,4072,4274,11120,01.358,553
2023-12-31T11:59:58,42.805,6.029,CST-1368DR,4072,4278,11130,01.355,553
2023-12-31T12:02:59,42.805,6.029,CST-1368DR,4072,4275,11122,01.357,553
2023-12-31T12:06:01,42.805,6.029,CST-1368DR,4072,4275,11121,01.358,553
2023-12-31T12:09:02,42.805,6.029,CST-1368DR,4072,4277,11127,01.356,553
2023-12-31T12:12:04,42.805,6.029,CST-1368DR,4072,4276,11124,01.357,553
2023-12-31T12:15:06,42.805,6.029,CST-1368DR,4072,4275,11121,01.358,553
2023-12-31T12:18:07,42.805,6.029,CST-1368DR,4072,4275,11122,01.357,553
2023-12-31T12:21:09,42.805,6.029,CST-1368DR,4072,4275,11122,01.357,553
2023-12-31T12:24:10,42.805,6.029,CST-1368DR,4072,4276,11125,01.356,553
2023-12-31T12:27:12,42.805,6.029,CST-1368DR,4072,4275,11120,01.358,553
2023-12-31T12:30:13,42.805,6.029,CST-1368DR,4072,4275,11121,01.358,553
2023-12-31T12:33:15,42.805,6.029,CST-1368DR,4072,4271,11111,01.361,553
2023-12-31T12:36:17,42.805,6.029,CST-1368DR,4072,4276,11125,01.356,553
2023-12-31T12:39:18,42.805,6.029,CST-1368DR,4072,4275,11122,01.357,553
2023-12-31T12:42:20,42.805,6.029,CST-1368DR,4072,4276,11124,01.357,553
2023-12-31T12:45:21,42.805,6.029,CST-1368DR,4072,4276,11124,01.357,553
2023-12-31T12:48:23,42.805,6.029,CST-1368DR,4072,4273,11115,01.360,553
2023-12-31T12:51:25,42.805,6.029,CST-1368DR,4072,4275,11121,01.358,553
2023-12-31T12:54:26,42.805,6.029,CST-1368DR,4072,4275,11122,01.357,553
2023-12-31T12:57:28,42.805,6.029,CST-1368DR,4072,4275,11120,01.358,553
2023-12-31T13:00:29,42.805,6.029,CST-1368DR,4072,4275,11122,01.357,553
2023-12-31T13:03:31,42.805,6.029,CST-1368DR,4072,4274,11120,01.358,553
2023-12-31T13:06:32,42.805,6.029,CST-1368DR,4072,4274,11120,01.358,553
2023-12-31T13:09:34,42.805,6.029,CST-1368DR,4072,4274,11118,01.359,553
2023-12-31T13:12:36,42.805,6.029,CST-1368DR,4072,4276,11124,01.357,553
2023-12-31T13:15:37,42.805,6.029,CST-1368DR,4072,4276,11124,01.357,553
2023-12-31T13:18:39,42.805,6.029,CST-1368DR,4072,4274,11120,01.358,553
2023-12-31T13:21:40,42.805,6.029,CST-1368DR,4072,4276,11124,01.357,553
2023-12-31T13:24:42,42.805,6.029,CST-1368DR,4072,4276,11124,01.357,553
2023-12-31T13:27:44,42.805,6.029,CST-1368DR,4072,4277,11126,01.356,553
2023-12-31T13:30:47,42.805,6.029,CST-1368DR,4072,4275,11122,01.357,553
2023-12-31T13:33:48,42.805,6.029,CST-1368DR,4072,4277,11126,01.356,553
2023-12-31T13:36:50,42.805,6.029,CST-1368DR,4072,4274,11119,01.359,553
2023-12-31T13:39:51,42.805,6.029,CST-1368DR,4072,4275,11122,01.357,553
2023-12-31T13:42:53,42.805,6.029,CST-1368DR,4072,4274,11119,01.359,553
2023-12-31T13:45:55,42.805,6.029,CST-1368DR,4072,4275,11122,01.357,553
2023-12-31T13:48:56,42.805,6.029,CST-1368DR,4072,4276,11125,01.356,553
2023-12-31T13:51:58,42.805,6.029,CST-1368DR,4072,4274,11120,01.358,553
2023-12-31T13:54:59,42.805,6.029,CST-1368DR,4072,4275,11122,01.357,553
2023-12-31T13:58:01,42.805,6.029,CST-1368DR,4072,4276,11125,01.356,553
2023-12-31T14:01:02,42.805,6.029,CST-1368DR,4072,4275,11122,01.357,553
2023-12-31T14:04:04,42.805,6.029,CST-1368DR,4072,4277,11126,01.356,553
2023-12-31T14:07:06,42.805,6.029,CST-1368DR,4072,4273,11117,01.359,553
2023-12-31T14:10:07,42.805,6.029,CST-1368DR,4072,4275,11121,01.358,553
2023-12-31T14:13:09,42.805,6.029,CST-1368DR,4072,4275,11120,01.358,553
2023-12-31T14:16:10,42.805,6.029,CST-1368DR,4072,4275,11122,01.357,553
2023-12-31T14:19:12,42.805,6.029,CST-1368DR,4072,4274,11120,01.358,553
2023-12-31T14:22:13,42.805,6.029,CST-1368DR,4072,4274,11119,01.359,553
2023-12-31T14:25:15,42.805,6.029,CST-1368DR,4072,4276,11124,01.357,553
2023-12-31T14:28:17,42.805,6.029,CST-1368DR,4072,4277,11126,01.356,553
2023-12-31T14:31:18,42.805,6.029,CST-1368DR,4072,4275,11120,01.358,553
2023-12-31T14:34:20,42.805,6.029,CST-1368DR,4072,4275,11120,01.358,553
2023-12-31T14:37:21,42.805,6.029,CST-1368DR,4072,4271,11112,01.361,553
2023-12-31T14:40:23,42.805,6.029,CST-1368DR,4072,4276,11124,01.357,553
2023-12-31T14:43:24,42.805,6.029,CST-1368DR,4072,4277,11126,01.356,553
2023-12-31T14:46:26,42.805,6.029,CST-1368DR,4072,4275,11122,01.357,553
2023-12-31T14:49:28,42.805,6.029,CST-1368DR,4072,4274,11119,01.359,553
2023-12-31T14:52:29,42.805,6.029,CST-1368DR,4072,4275,11122,01.357,553
2023-12-31T14:55:31,42.805,6.029,CST-1368DR,4072,4273,11116,01.360,553
2023-12-31T14:58:32,42.805,6.029,CST-1368DR,4072,4275,11120,01.358,553
2023-12-31T15:01:34,42.805,6.029,CST-1368DR,4072,4275,11122,01.357,553
2023-12-31T15:04:36,42.805,6.029,CST-1368DR,4072,4277,11126,01.356,553
2023-12-31T15:07:37,42.805,6.029,CST-1368DR,4072,4277,11126,01.356,553
2023-12-31T15:10:39,42.805,6.029,CST-1368DR,4072,4275,11122,01.357,553
2023-12-31T15:13:40,42.805,6.029,CST-1368DR,4072,4276,11124,01.357,553
2023-12-31T15:16:42,42.805,6.029,CST-1368DR,4072,4277,11128,01.355,553
2023-12-31T15:19:43,42.805,6.029,CST-1368DR,4072,4275,11121,01.358,553
2023-12-31T15:22:45,42.805,6.029,CST-1368DR,4072,4274,11120,01.358,553
2023-12-31T15:25:47,42.805,6.029,CST-1368DR,4072,4276,11124,01.357,553
2023-12-31T15:28:48,42.805,6.029,CST-1368DR,4072,4276,11125,01.356,553
2023-12-31T15:31:50,42.805,6.029,CST-1368DR,4072,4277,11126,01.356,553
2023-12-31T15:34:52,42.805,6.029,CST-1368DR,4072,4276,11124,01.357,553
2023-12-31T15:37:53,42.805,6.029,CST-1368DR,4072,4275,11121,01.358,553
2023-12-31T15:40:55,42.805,6.029,CST-1368DR,4072,4275,11121,01.358,553
2023-12-31T15:43:56,42.805,6.029,CST-1368DR,4072,4276,11124,01.357,553
2023-12-31T15:46:58,42.805,6.029,CST-1368DR,4072,4273,11116,01.360,553
2023-12-31T15:49:59,42.805,6.029,CST-1368DR,4071,4270,11111,01.361,553
2023-12-31T15:53:01,42.805,6.029,CST-1368DR,4072,4273,11117,01.359,553
2023-12-31T15:56:03,42.805,6.029,CST-1368DR,4072,4277,11128,01.355,553
2023-12-31T15:59:04,42.805,6.029,CST-1368DR,4072,4275,11120,01.358,553
2023-12-31T16:02:06,42.805,6.029,CST-1368DR,4072,4273,11117,01.359,553
2023-12-31T16:05:07,42.805,6.029,CST-1368DR,4072,4275,11122,01.357,553
2023-12-31T16:08:09,42.805,6.029,CST-1368DR,4072,4274,11119,01.359,553
2023-12-31T16:11:10,42.805,6.029,CST-1368DR,4072,4273,11117,01.359,553
2023-12-31T16:14:12,42.805,6.029,CST-1368DR,4072,4274,11120,01.358,553
2023-12-31T16:17:14,42.805,6.029,CST-1368DR,4072,4275,11121,01.358,553
2023-12-31T16:20:15,42.805,6.029,CST-1368DR,4072,4275,11121,01.358,553
2023-12-31T16:23:17,42.805,6.029,CST-1368DR,4072,4271,11111,01.361,553
2023-12-31T16:26:18,42.805,6.029,CST-1368DR,4072,4275,11121,01.358,553
2023-12-31T16:29:20,42.805,6.029,CST-1368DR,4072,4275,11121,01.358,553
2023-12-31T16:32:22,42.805,6.029,CST-1368DR,4072,4276,11124,01.357,553
2023-12-31T16:35:23,42.805,6.029,CST-1368DR,4072,4274,11119,01.359,553
2023-12-31T16:38:25,42.805,6.029,CST-1368DR,4072,4273,11117,01.359,553